When you browse on this site, cookies collect data to enhance your experience and personalize the content and advertising you see.
Visit our Privacy Policy to learn more. By continuing to use the site, you agree to this use of cookies and data.
  • In Hungary
  • List of Countries
  • For 7 days
  • Water Temperature
  • Satellite Maps
  • Weather Map
  • News
  • Weather Widgets
  • user-avatar
    Login

    Hourly Weather Malye Mazary

    Today, 18 November, Sunday

    Time Temperature Precipitation Wind Pressure Humidity
    00:00 -2°C° 0.3 mm 4 mps 754 mmHg 90%
    01:00 -2°C° 0.3 mm 4 mps 754 mmHg 90%
    02:00 -2°C° 0.3 mm 4 mps 753 mmHg 91%
    03:00 -1°C° 0 mm 3 mps 752 mmHg 91%
    04:00 -1°C° 0.2 mm 3 mps 752 mmHg 91%
    05:00 -1°C° 0.2 mm 3 mps 752 mmHg 91%
    06:00 -1°C° 0.2 mm 3 mps 752 mmHg 91%
    07:00 -1°C° 0 mm 3 mps 752 mmHg 91%
    08:00 -1°C° 0 mm 3 mps 752 mmHg 91%
    09:00 -1°C° 0 mm 3 mps 753 mmHg 91%
    10:00 -1°C° 0 mm 3 mps 753 mmHg 90%
    11:00 0°C° 0 mm 3 mps 753 mmHg 90%
    12:00 0°C° 0 mm 3 mps 753 mmHg 90%
    13:00 0°C° 0 mm 3 mps 754 mmHg 91%
    14:00 +1°C° 0 mm 2 mps 754 mmHg 92%
    15:00 +1°C° 0 mm 2 mps 754 mmHg 93%
    16:00 +1°C° 0 mm 2 mps 754 mmHg 94%
    17:00 +1°C° 0 mm 2 mps 755 mmHg 94%
    18:00 -1°C° 0 mm 3 mps 755 mmHg 95%
    19:00 -1°C° 0 mm 2 mps 755 mmHg 95%
    20:00 -1°C° 0 mm 2 mps 755 mmHg 96%
    21:00 -1°C° 0 mm 2 mps 755 mmHg 96%
    22:00 -1°C° 0 mm 2 mps 756 mmHg 96%
    23:00 -1°C° 0 mm 2 mps 756 mmHg 97%

    Tomorrow, 19 November, Monday

    Time Temperature Precipitation Wind Pressure Humidity
    00:00 -1°C° 0 mm 2 mps 756 mmHg 97%
    01:00 -1°C° 0.1 mm 2 mps 756 mmHg 97%
    02:00 -1°C° 0.1 mm 2 mps 756 mmHg 97%
    03:00 -1°C° 0.1 mm 2 mps 757 mmHg 97%
    04:00 -1°C° 0.2 mm 2 mps 757 mmHg 97%
    05:00 -1°C° 0.2 mm 2 mps 757 mmHg 96%
    06:00 -1°C° 0.2 mm 2 mps 757 mmHg 96%
    07:00 -1°C° 0.2 mm 2 mps 758 mmHg 96%
    08:00 -1°C° 0.2 mm 2 mps 758 mmHg 96%
    09:00 +1°C° 0.2 mm 2 mps 758 mmHg 96%
    10:00 +1°C° 0 mm 2 mps 759 mmHg 94%
    11:00 0°C° 0 mm 3 mps 759 mmHg 93%
    12:00 0°C° 0 mm 3 mps 759 mmHg 91%
    13:00 0°C° 0 mm 3 mps 759 mmHg 91%
    14:00 0°C° 0 mm 3 mps 760 mmHg 91%
    15:00 0°C° 0 mm 3 mps 760 mmHg 90%
    16:00 -1°C° 0 mm 3 mps 760 mmHg 91%
    17:00 -1°C° 0 mm 3 mps 760 mmHg 92%
    18:00 -1°C° 0 mm 3 mps 761 mmHg 92%
    19:00 -1°C° 0.1 mm 3 mps 761 mmHg 92%
    20:00 -2°C° 0.1 mm 3 mps 761 mmHg 91%
    21:00 -2°C° 0.1 mm 3 mps 761 mmHg 90%
    22:00 -2°C° 0 mm 3 mps 761 mmHg 89%
    23:00 -2°C° 0 mm 3 mps 761 mmHg 88%

    Day after tomorrow, 20 November, Tuesday

    Time Temperature Precipitation Wind Pressure Humidity
    00:00 -4°C° 0 mm 3 mps 761 mmHg 87%
    01:00 -4°C° 0 mm 3 mps 761 mmHg 88%
    02:00 -4°C° 0 mm 3 mps 761 mmHg 89%
    03:00 -4°C° 0 mm 2 mps 761 mmHg 89%
    04:00 -4°C° 0 mm 2 mps 761 mmHg 91%
    05:00 -4°C° 0 mm 2 mps 760 mmHg 92%
    06:00 -5°C° 0 mm 2 mps 760 mmHg 93%
    07:00 -4°C° 0 mm 2 mps 760 mmHg 92%
    08:00 -4°C° 0 mm 2 mps 760 mmHg 91%
    09:00 -4°C° 0 mm 2 mps 760 mmHg 90%
    10:00 -4°C° 0 mm 2 mps 759 mmHg 87%
    11:00 -4°C° 0 mm 2 mps 759 mmHg 85%
    12:00 -3°C° 0 mm 2 mps 759 mmHg 82%
    13:00 -3°C° 0 mm 2 mps 758 mmHg 82%
    14:00 -3°C° 0 mm 2 mps 758 mmHg 82%
    15:00 -4°C° 0 mm 3 mps 757 mmHg 81%
    16:00 -5°C° 0 mm 3 mps 757 mmHg 82%
    17:00 -5°C° 0 mm 3 mps 756 mmHg 83%
    18:00 -5°C° 0 mm 3 mps 756 mmHg 84%
    19:00 -5°C° 0 mm 3 mps 755 mmHg 83%
    20:00 -5°C° 0 mm 3 mps 755 mmHg 83%
    21:00 -5°C° 0 mm 4 mps 754 mmHg 82%
    22:00 -5°C° 0 mm 4 mps 754 mmHg 82%
    23:00 -5°C° 0 mm 4 mps 753 mmHg 81%

    21 November, Wednesday

    Time Temperature Precipitation Wind Pressure Humidity
    00:00 -5°C° 0 mm 4 mps 753 mmHg 81%
    01:00 -5°C° 0 mm 4 mps 752 mmHg 81%
    02:00 -5°C° 0 mm 4 mps 752 mmHg 81%
    03:00 -5°C° 0 mm 4 mps 752 mmHg 81%
    04:00 -5°C° 0.1 mm 4 mps 751 mmHg 83%
    05:00 -5°C° 0.1 mm 4 mps 751 mmHg 84%
    06:00 -4°C° 0.1 mm 4 mps 751 mmHg 85%
    07:00 -4°C° 0.1 mm 4 mps 751 mmHg 84%
    08:00 -4°C° 0.1 mm 4 mps 751 mmHg 84%
    09:00 -3°C° 0.1 mm 4 mps 751 mmHg 83%
    10:00 -4°C° 0 mm 5 mps 751 mmHg 80%
    11:00 -4°C° 0 mm 5 mps 751 mmHg 77%
    12:00 -2°C° 0 mm 5 mps 751 mmHg 74%
    13:00 -4°C° 0 mm 5 mps 751 mmHg 73%
    14:00 -5°C° 0 mm 5 mps 751 mmHg 72%
    15:00 -6°C° 0 mm 5 mps 752 mmHg 70%
    16:00 -5°C° 0 mm 4 mps 752 mmHg 72%
    17:00 -5°C° 0 mm 4 mps 752 mmHg 74%
    18:00 -7°C° 0 mm 4 mps 752 mmHg 76%
    19:00 -7°C° 0 mm 4 mps 752 mmHg 77%
    20:00 -6°C° 0 mm 3 mps 751 mmHg 78%
    21:00 -6°C° 0 mm 3 mps 751 mmHg 79%
    22:00 -6°C° 0 mm 3 mps 751 mmHg 81%
    23:00 -6°C° 0 mm 3 mps 751 mmHg 83%

    22 November, Thursday

    Time Temperature Precipitation Wind Pressure Humidity
    00:00 -6°C° 0 mm 3 mps 750 mmHg 84%
    01:00 -8°C° 0 mm 4 mps 750 mmHg 86%
    02:00 -8°C° 0 mm 4 mps 749 mmHg 87%
    03:00 -8°C° 0 mm 4 mps 749 mmHg 88%
    04:00 -8°C° 0 mm 4 mps 748 mmHg 87%
    05:00 -7°C° 0 mm 5 mps 747 mmHg 86%
    06:00 -7°C° 0 mm 5 mps 746 mmHg 86%
    07:00 -8°C° 0.2 mm 6 mps 745 mmHg 85%
    08:00 -6°C° 0.2 mm 6 mps 745 mmHg 85%
    09:00 -6°C° 0.2 mm 6 mps 744 mmHg 84%
    10:00 -6°C° 0.3 mm 6 mps 744 mmHg 84%
    11:00 -5°C° 0.3 mm 6 mps 743 mmHg 83%
    12:00 -5°C° 0.3 mm 5 mps 743 mmHg 83%
    13:00 -5°C° 0.5 mm 5 mps 742 mmHg 86%
    14:00 -5°C° 0.5 mm 5 mps 741 mmHg 89%
    15:00 -4°C° 0.5 mm 4 mps 740 mmHg 91%
    16:00 -5°C° 0.6 mm 6 mps 740 mmHg 87%
    17:00 -7°C° 0.6 mm 8 mps 741 mmHg 82%
    18:00 -8°C° 0.6 mm 9 mps 741 mmHg 77%
    19:00 -9°C° 0.1 mm 9 mps 742 mmHg 76%
    20:00 -10°C° 0.1 mm 8 mps 743 mmHg 75%
    21:00 -11°C° 0.1 mm 7 mps 745 mmHg 73%
    22:00 -10°C° 0 mm 6 mps 746 mmHg 76%
    23:00 -11°C° 0 mm 5 mps 747 mmHg 78%

    23 November, Friday

    Time Temperature Precipitation Wind Pressure Humidity
    00:00 -10°C° 0 mm 4 mps 748 mmHg 80%
    01:00 -10°C° 0 mm 4 mps 748 mmHg 81%
    02:00 -10°C° 0 mm 4 mps 749 mmHg 82%
    03:00 -10°C° 0 mm 4 mps 750 mmHg 83%
    04:00 -10°C° 0 mm 4 mps 750 mmHg 82%
    05:00 -11°C° 0 mm 4 mps 751 mmHg 81%
    06:00 -11°C° 0 mm 4 mps 751 mmHg 80%
    07:00 -11°C° 0 mm 4 mps 752 mmHg 81%
    08:00 -11°C° 0 mm 4 mps 752 mmHg 82%
    09:00 -11°C° 0 mm 4 mps 753 mmHg 82%
    10:00 -10°C° 0 mm 4 mps 753 mmHg 80%
    11:00 -10°C° 0 mm 4 mps 753 mmHg 78%
    12:00 -10°C° 0 mm 5 mps 753 mmHg 77%
    13:00 -10°C° 0 mm 5 mps 753 mmHg 77%
    14:00 -10°C° 0 mm 5 mps 752 mmHg 77%
    15:00 -10°C° 0 mm 5 mps 752 mmHg 77%
    16:00 -8°C° 0 mm 5 mps 751 mmHg 79%
    17:00 -8°C° 0 mm 5 mps 751 mmHg 81%
    18:00 -8°C° 0 mm 5 mps 751 mmHg 83%
    19:00 -8°C° 0 mm 5 mps 750 mmHg 84%
    20:00 -7°C° 0 mm 5 mps 749 mmHg 85%
    21:00 -7°C° 0 mm 5 mps 749 mmHg 86%
    22:00 -6°C° 0 mm 6 mps 748 mmHg 86%
    23:00 -6°C° 0 mm 6 mps 748 mmHg 85%
    Show more